Time,TemperatureF,DewpointF,PressureIn,WindDirection,WindDirectionDegrees,WindSpeedMPH,WindSpeedGustMPH,Humidity,HourlyPrecipIn,Conditions,Clouds,dailyrainin,SolarRadiationWatts/m^2,SoftwareType,DateUTC
2013-05-06 00:01:00,46.8,30.1,30.22,South,170,3.0,5.0,52,0.00,,,0.00,0,LWC V2.00 B727,2013-05-06 06:01:00,
2013-05-06 00:06:00,46.8,30.1,30.22,South,178,3.0,3.0,52,0.00,,,0.00,0,LWC V2.00 B727,2013-05-06 06:06:00,
2013-05-06 00:11:00,46.8,29.6,30.22,South,172,0.0,4.0,51,0.00,,,0.00,0,LWC V2.00 B727,2013-05-06 06:11:00,
2013-05-06 00:16:00,46.8,29.6,30.22,South,173,0.0,1.0,51,0.00,,,0.00,0,LWC V2.00 B727,2013-05-06 06:16:00,
2013-05-06 00:21:00,46.7,30.0,30.22,South,173,1.0,1.0,52,0.00,,,0.00,0,LWC V2.00 B727,2013-05-06 06:21:00,
2013-05-06 00:26:00,46.7,30.0,30.23,South,173,0.0,0.0,52,0.00,,,0.00,0,LWC V2.00 B727,2013-05-06 06:26:00,
2013-05-06 00:31:00,46.6,29.9,30.22,South,172,0.0,0.0,52,0.00,,,0.00,0,LWC V2.00 B727,2013-05-06 06:31:00,
2013-05-06 00:36:00,46.6,30.4,30.22,South,173,0.0,0.0,53,0.00,,,0.00,0,LWC V2.00 B727,2013-05-06 06:36:00,
2013-05-06 00:41:00,46.5,30.3,30.23,South,173,0.0,0.0,53,0.00,,,0.00,0,LWC V2.00 B727,2013-05-06 06:41:00,
2013-05-06 00:46:00,46.3,30.1,30.23,South,172,0.0,0.0,53,0.00,,,0.00,0,LWC V2.00 B727,2013-05-06 06:46:00,
2013-05-06 00:51:00,46.1,29.9,30.23,South,172,0.0,0.0,53,0.00,,,0.00,0,LWC V2.00 B727,2013-05-06 06:51:00,
2013-05-06 00:56:00,46.0,30.3,30.23,South,173,0.0,0.0,54,0.00,,,0.00,0,LWC V2.00 B727,2013-05-06 06:56:00,
2013-05-06 01:01:00,45.8,30.1,30.23,South,173,0.0,0.0,54,0.00,,,0.00,0,LWC V2.00 B727,2013-05-06 07:01:00,
2013-05-06 01:06:00,45.6,29.9,30.23,South,172,0.0,0.0,54,0.00,,,0.00,0,LWC V2.00 B727,2013-05-06 07:06:00,
2013-05-06 01:11:00,45.4,29.3,30.22,South,172,0.0,0.0,53,0.00,,,0.00,0,LWC V2.00 B727,2013-05-06 07:11:00,
2013-05-06 01:16:00,45.0,29.8,30.22,South,173,0.0,0.0,55,0.00,,,0.00,0,LWC V2.00 B727,2013-05-06 07:16:00,
2013-05-06 01:21:00,44.5,29.4,30.22,South,172,0.0,0.0,55,0.00,,,0.00,0,LWC V2.00 B727,2013-05-06 07:21:00,
2013-05-06 01:26:00,44.0,28.9,30.22,South,173,0.0,0.0,55,0.00,,,0.00,0,LWC V2.00 B727,2013-05-06 07:26:00,
2013-05-06 01:31:00,43.6,28.5,30.22,South,173,0.0,1.0,55,0.00,,,0.00,0,LWC V2.00 B727,2013-05-06 07:31:00,
2013-05-06 01:36:00,43.3,28.2,30.21,South,173,0.0,1.0,55,0.00,,,0.00,0,LWC V2.00 B727,2013-05-06 07:36:00,
2013-05-06 01:41:00,42.9,27.9,30.21,South,173,0.0,0.0,55,0.00,,,0.00,0,LWC V2.00 B727,2013-05-06 07:41:00,
2013-05-06 01:46:00,42.4,27.8,30.21,South,173,2.0,3.0,56,0.00,,,0.00,0,LWC V2.00 B727,2013-05-06 07:46:00,
2013-05-06 01:51:00,41.9,27.8,30.21,South,173,0.0,1.0,57,0.00,,,0.00,0,LWC V2.00 B727,2013-05-06 07:51:00,
2013-05-06 01:56:00,41.4,26.0,30.21,South,172,0.0,0.0,54,0.00,,,0.00,0,LWC V2.00 B727,2013-05-06 07:56:00,
2013-05-06 02:01:00,41.1,25.3,30.21,South,172,0.0,1.0,53,0.00,,,0.00,0,LWC V2.00 B727,2013-05-06 08:01:00,
2013-05-06 02:06:00,40.9,25.6,30.21,SSE,150,0.0,1.0,54,0.00,,,0.00,0,LWC V2.00 B727,2013-05-06 08:06:00,
2013-05-06 02:11:00,40.8,25.5,30.20,SSE,150,0.0,1.0,54,0.00,,,0.00,0,LWC V2.00 B727,2013-05-06 08:11:00,
2013-05-06 02:16:00,40.6,25.3,30.20,SSE,150,0.0,1.0,54,0.00,,,0.00,0,LWC V2.00 B727,2013-05-06 08:16:00,
2013-05-06 02:21:00,40.3,25.0,30.20,SSE,150,0.0,1.0,54,0.00,,,0.00,0,LWC V2.00 B727,2013-05-06 08:21:00,
2013-05-06 02:26:00,40.1,24.8,30.20,SSE,150,0.0,0.0,54,0.00,,,0.00,0,LWC V2.00 B727,2013-05-06 08:26:00,
2013-05-06 02:31:00,39.7,23.5,30.20,SSE,149,0.0,0.0,52,0.00,,,0.00,0,LWC V2.00 B727,2013-05-06 08:31:00,
2013-05-06 02:36:00,39.2,23.5,30.20,SSE,150,0.0,0.0,53,0.00,,,0.00,0,LWC V2.00 B727,2013-05-06 08:36:00,
2013-05-06 02:41:00,38.6,23.4,30.20,SSE,150,0.0,1.0,54,0.00,,,0.00,0,LWC V2.00 B727,2013-05-06 08:41:00,
2013-05-06 02:46:00,38.3,22.7,30.20,SE,146,0.0,0.0,53,0.00,,,0.00,0,LWC V2.00 B727,2013-05-06 08:46:00,
2013-05-06 02:51:00,38.3,23.1,30.20,ESE,121,0.0,3.0,54,0.00,,,0.00,0,LWC V2.00 B727,2013-05-06 08:51:00,
2013-05-06 02:56:00,38.2,22.6,30.20,SSE,157,0.0,1.0,53,0.00,,,0.00,0,LWC V2.00 B727,2013-05-06 08:56:00,
2013-05-06 03:01:00,38.1,22.9,30.19,SSE,157,0.0,0.0,54,0.00,,,0.00,0,LWC V2.00 B727,2013-05-06 09:01:00,
2013-05-06 03:06:00,37.8,22.7,30.19,SSE,157,0.0,1.0,54,0.00,,,0.00,0,LWC V2.00 B727,2013-05-06 09:06:00,
2013-05-06 03:11:00,37.7,22.6,30.19,SSE,157,0.0,0.0,54,0.00,,,0.00,0,LWC V2.00 B727,2013-05-06 09:11:00,
2013-05-06 03:16:00,37.3,23.9,30.19,SSE,150,0.0,0.0,58,0.00,,,0.00,0,LWC V2.00 B727,2013-05-06 09:16:00,
2013-05-06 03:21:00,37.1,22.9,30.20,SSE,150,0.0,0.0,56,0.00,,,0.00,0,LWC V2.00 B727,2013-05-06 09:21:00,
2013-05-06 03:26:00,36.5,22.7,30.19,SSE,149,0.0,0.0,57,0.00,,,0.00,0,LWC V2.00 B727,2013-05-06 09:26:00,
2013-05-06 03:31:00,36.1,22.4,30.20,SSE,150,0.0,0.0,57,0.00,,,0.00,0,LWC V2.00 B727,2013-05-06 09:31:00,
2013-05-06 03:36:00,35.8,22.1,30.19,SSE,150,0.0,1.0,57,0.00,,,0.00,0,LWC V2.00 B727,2013-05-06 09:36:00,
2013-05-06 03:41:00,35.6,21.9,30.19,SSE,149,0.0,0.0,57,0.00,,,0.00,0,LWC V2.00 B727,2013-05-06 09:41:00,
2013-05-06 03:46:00,35.5,21.8,30.19,SSE,150,0.0,0.0,57,0.00,,,0.00,0,LWC V2.00 B727,2013-05-06 09:46:00,
2013-05-06 03:51:00,35.4,21.7,30.19,SSE,150,0.0,2.0,57,0.00,,,0.00,0,LWC V2.00 B727,2013-05-06 09:51:00,
2013-05-06 03:56:00,35.4,21.7,30.19,SSE,150,0.0,0.0,57,0.00,,,0.00,0,LWC V2.00 B727,2013-05-06 09:56:00,
2013-05-06 04:01:00,35.3,21.6,30.18,SSE,149,0.0,0.0,57,0.00,,,0.00,0,LWC V2.00 B727,2013-05-06 10:01:00,
2013-05-06 04:06:00,35.1,21.0,30.18,SSE,150,0.0,1.0,56,0.00,,,0.00,0,LWC V2.00 B727,2013-05-06 10:06:00,
2013-05-06 04:11:00,35.0,21.7,30.18,SSE,150,0.0,1.0,58,0.00,,,0.00,0,LWC V2.00 B727,2013-05-06 10:11:00,
2013-05-06 04:16:00,34.7,21.0,30.18,SSE,149,0.0,0.0,57,0.00,,,0.00,0,LWC V2.00 B727,2013-05-06 10:16:00,
2013-05-06 04:21:00,34.7,21.0,30.18,SSE,152,1.0,3.0,57,0.00,,,0.00,0,LWC V2.00 B727,2013-05-06 10:21:00,
2013-05-06 04:26:00,34.7,21.5,30.18,SSE,151,0.0,0.0,58,0.00,,,0.00,0,LWC V2.00 B727,2013-05-06 10:26:00,
2013-05-06 04:31:00,34.6,21.8,30.18,South,175,0.0,4.0,59,0.00,,,0.00,0,LWC V2.00 B727,2013-05-06 10:31:00,
2013-05-06 04:36:00,34.9,20.8,30.18,SSW,202,0.0,4.0,56,0.00,,,0.00,0,LWC V2.00 B727,2013-05-06 10:36:00,
2013-05-06 04:41:00,35.3,21.6,30.18,SSW,192,1.0,4.0,57,0.00,,,0.00,0,LWC V2.00 B727,2013-05-06 10:41:00,
2013-05-06 04:46:00,35.5,21.0,30.18,SSW,192,0.0,2.0,55,0.00,,,0.00,0,LWC V2.00 B727,2013-05-06 10:46:00,
2013-05-06 04:51:00,35.9,21.3,30.18,SSW,209,0.0,0.0,55,0.00,,,0.00,0,LWC V2.00 B727,2013-05-06 10:51:00,
2013-05-06 04:56:00,36.1,21.5,30.19,South,171,3.0,5.0,55,0.00,,,0.00,0,LWC V2.00 B727,2013-05-06 10:56:00,
2013-05-06 05:01:00,36.6,21.5,30.18,SSW,209,0.0,5.0,54,0.00,,,0.00,0,LWC V2.00 B727,2013-05-06 11:01:00,
2013-05-06 05:06:00,36.9,21.4,30.18,SSW,195,0.0,1.0,53,0.00,,,0.00,0,LWC V2.00 B727,2013-05-06 11:06:00,
2013-05-06 05:11:00,37.2,21.7,30.18,South,189,3.0,5.0,53,0.00,,,0.00,0,LWC V2.00 B727,2013-05-06 11:11:00,
2013-05-06 05:16:00,39.3,23.2,30.18,SSW,192,5.0,10.0,52,0.00,,,0.00,0,LWC V2.00 B727,2013-05-06 11:16:00,
2013-05-06 05:21:00,41.4,24.2,30.18,South,178,4.0,7.0,50,0.00,,,0.00,0,LWC V2.00 B727,2013-05-06 11:21:00,
2013-05-06 05:26:00,42.6,24.3,30.18,South,178,2.0,9.0,48,0.00,,,0.00,0,LWC V2.00 B727,2013-05-06 11:26:00,
2013-05-06 05:31:00,43.2,25.3,30.17,SSE,153,2.0,3.0,49,0.00,,,0.00,0,LWC V2.00 B727,2013-05-06 11:31:00,
2013-05-06 05:36:00,43.4,25.5,30.17,SSE,163,0.0,3.0,49,0.00,,,0.00,0,LWC V2.00 B727,2013-05-06 11:36:00,
2013-05-06 05:41:00,43.4,26.0,30.17,SSE,154,0.0,0.0,50,0.00,,,0.00,0,LWC V2.00 B727,2013-05-06 11:41:00,
2013-05-06 05:46:00,43.3,23.9,30.17,ESE,120,0.0,6.0,46,0.00,,,0.00,0,LWC V2.00 B727,2013-05-06 11:46:00,
2013-05-06 05:51:00,43.2,23.8,30.17,ESE,113,0.0,3.0,46,0.00,,,0.00,0,LWC V2.00 B727,2013-05-06 11:51:00,
2013-05-06 05:56:00,43.2,24.3,30.17,South,184,0.0,6.0,47,0.00,,,0.00,0,LWC V2.00 B727,2013-05-06 11:56:00,
2013-05-06 06:01:00,43.2,24.9,30.17,ESE,115,1.0,2.0,48,0.00,,,0.00,0,LWC V2.00 B727,2013-05-06 12:01:00,
2013-05-06 06:06:00,43.2,25.3,30.17,ESE,118,0.0,3.0,49,0.00,,,0.00,0,LWC V2.00 B727,2013-05-06 12:06:00,
2013-05-06 06:11:00,43.2,25.3,30.16,ESE,121,1.0,1.0,49,0.00,,,0.00,0,LWC V2.00 B727,2013-05-06 12:11:00,
2013-05-06 06:16:00,43.2,25.3,30.17,ESE,122,0.0,0.0,49,0.00,,,0.00,0,LWC V2.00 B727,2013-05-06 12:16:00,
2013-05-06 06:21:00,43.1,25.7,30.17,SE,144,0.0,3.0,50,0.00,,,0.00,0,LWC V2.00 B727,2013-05-06 12:21:00,
2013-05-06 06:26:00,43.0,25.6,30.17,SE,144,2.0,2.0,50,0.00,,,0.00,5,LWC V2.00 B727,2013-05-06 12:26:00,
2013-05-06 06:31:00,43.1,26.2,30.17,South,169,0.0,3.0,51,0.00,,,0.00,9,LWC V2.00 B727,2013-05-06 12:31:00,
2013-05-06 06:36:00,43.4,26.0,30.17,SSW,211,4.0,6.0,50,0.00,,,0.00,11,LWC V2.00 B727,2013-05-06 12:36:00,
2013-05-06 06:41:00,44.8,26.8,30.18,SSW,196,3.0,6.0,49,0.00,,,0.00,12,LWC V2.00 B727,2013-05-06 12:41:00,
2013-05-06 06:46:00,45.8,27.2,30.18,SSW,207,5.0,7.0,48,0.00,,,0.00,16,LWC V2.00 B727,2013-05-06 12:46:00,
2013-05-06 06:51:00,46.3,28.2,30.18,SW,225,1.0,12.0,49,0.00,,,0.00,19,LWC V2.00 B727,2013-05-06 12:51:00,
2013-05-06 06:56:00,46.5,29.4,30.18,SSW,206,5.0,7.0,51,0.00,,,0.00,21,LWC V2.00 B727,2013-05-06 12:56:00,
2013-05-06 07:01:00,46.5,29.4,30.18,SSW,199,3.0,3.0,51,0.00,,,0.00,25,LWC V2.00 B727,2013-05-06 13:01:00,
2013-05-06 07:06:00,46.5,29.4,30.18,SSW,195,1.0,4.0,51,0.00,,,0.00,30,LWC V2.00 B727,2013-05-06 13:06:00,
2013-05-06 07:11:00,46.4,29.3,30.17,WSW,238,1.0,2.0,51,0.00,,,0.00,37,LWC V2.00 B727,2013-05-06 13:11:00,
2013-05-06 07:16:00,46.4,29.7,30.17,WSW,238,0.0,1.0,52,0.00,,,0.00,33,LWC V2.00 B727,2013-05-06 13:16:00,
2013-05-06 07:21:00,46.4,29.7,30.17,WSW,237,0.0,2.0,52,0.00,,,0.00,30,LWC V2.00 B727,2013-05-06 13:21:00,
2013-05-06 07:26:00,46.3,29.6,30.17,WSW,237,1.0,2.0,52,0.00,,,0.00,35,LWC V2.00 B727,2013-05-06 13:26:00,
2013-05-06 07:31:00,46.3,29.6,30.17,WSW,237,0.0,2.0,52,0.00,,,0.00,39,LWC V2.00 B727,2013-05-06 13:31:00,
2013-05-06 07:36:00,46.3,29.6,30.17,South,185,0.0,6.0,52,0.00,,,0.00,47,LWC V2.00 B727,2013-05-06 13:36:00,
2013-05-06 07:41:00,46.4,29.3,30.17,SW,218,6.0,6.0,51,0.00,,,0.00,49,LWC V2.00 B727,2013-05-06 13:41:00,
2013-05-06 07:46:00,46.7,29.5,30.16,SSW,198,1.0,6.0,51,0.00,,,0.00,58,LWC V2.00 B727,2013-05-06 13:46:00,
2013-05-06 07:51:00,46.9,29.7,30.16,WSW,240,4.0,7.0,51,0.00,,,0.00,69,LWC V2.00 B727,2013-05-06 13:51:00,
2013-05-06 07:56:00,47.1,29.4,30.16,WSW,244,4.0,4.0,50,0.00,,,0.00,70,LWC V2.00 B727,2013-05-06 13:56:00,
2013-05-06 08:01:00,47.3,30.1,30.16,SSW,194,5.0,5.0,51,0.00,,,0.00,51,LWC V2.00 B727,2013-05-06 14:01:00,
2013-05-06 08:06:00,47.3,29.6,30.16,South,190,0.0,1.0,50,0.00,,,0.00,42,LWC V2.00 B727,2013-05-06 14:06:00,
2013-05-06 08:11:00,47.3,30.6,30.16,SSW,212,3.0,3.0,52,0.00,,,0.00,65,LWC V2.00 B727,2013-05-06 14:11:00,
2013-05-06 08:12:00,47.2,30.0,30.15,SSW,212,0.0,3.0,51,0.00,,,0.00,69,LWC V2.00 B727,2013-05-06 14:12:00,
2013-05-06 08:17:00,47.2,30.0,30.15,SSW,211,2.0,3.0,51,0.00,,,0.00,88,LWC V2.00 B727,2013-05-06 14:17:00,
2013-05-06 08:22:00,47.2,29.0,30.15,SSW,212,2.0,2.0,49,0.00,,,0.00,83,LWC V2.00 B727,2013-05-06 14:22:00,
2013-05-06 08:27:00,47.1,29.9,30.15,SSW,212,1.0,1.0,51,0.00,,,0.00,76,LWC V2.00 B727,2013-05-06 14:27:00,
2013-05-06 08:32:00,47.0,29.3,30.15,SSW,213,0.0,0.0,50,0.00,,,0.00,72,LWC V2.00 B727,2013-05-06 14:32:00,
2013-05-06 08:37:00,47.0,29.8,30.15,SE,137,1.0,3.0,51,0.00,,,0.00,121,LWC V2.00 B727,2013-05-06 14:37:00,
2013-05-06 08:42:00,47.0,28.8,30.14,ENE,67,1.0,2.0,49,0.00,,,0.00,160,LWC V2.00 B727,2013-05-06 14:42:00,
2013-05-06 08:47:00,47.2,29.5,30.14,NE,55,2.0,4.0,50,0.00,,,0.00,155,LWC V2.00 B727,2013-05-06 14:47:00,
2013-05-06 08:52:00,47.4,29.7,30.14,NE,51,0.0,0.0,50,0.00,,,0.00,137,LWC V2.00 B727,2013-05-06 14:52:00,
2013-05-06 08:57:00,47.6,29.4,30.14,NE,51,2.0,3.0,49,0.00,,,0.00,167,LWC V2.00 B727,2013-05-06 14:57:00,
2013-05-06 09:02:00,47.8,28.6,30.14,NE,51,0.0,0.0,47,0.00,,,0.00,218,LWC V2.00 B727,2013-05-06 15:02:00,
2013-05-06 09:07:00,48.0,29.3,30.14,NE,51,0.0,2.0,48,0.00,,,0.00,250,LWC V2.00 B727,2013-05-06 15:07:00,
2013-05-06 09:12:00,48.5,30.2,30.14,NE,41,2.0,4.0,49,0.00,,,0.00,267,LWC V2.00 B727,2013-05-06 15:12:00,
2013-05-06 09:17:00,49.1,31.3,30.14,NE,55,4.0,5.0,50,0.00,,,0.00,232,LWC V2.00 B727,2013-05-06 15:17:00,
2013-05-06 09:22:00,49.5,30.6,30.14,NNE,32,0.0,3.0,48,0.00,,,0.00,163,LWC V2.00 B727,2013-05-06 15:22:00,
2013-05-06 09:27:00,49.8,30.4,30.14,NNE,30,2.0,4.0,47,0.00,,,0.00,153,LWC V2.00 B727,2013-05-06 15:27:00,
2013-05-06 09:32:00,50.0,30.6,30.13,NNE,30,3.0,5.0,47,0.00,,,0.00,214,LWC V2.00 B727,2013-05-06 15:32:00,
2013-05-06 09:37:00,50.3,31.4,30.13,NE,47,2.0,4.0,48,0.00,,,0.00,244,LWC V2.00 B727,2013-05-06 15:37:00,
2013-05-06 09:42:00,50.6,31.6,30.14,NE,42,2.0,4.0,48,0.00,,,0.00,276,LWC V2.00 B727,2013-05-06 15:42:00,
2013-05-06 09:47:00,51.1,31.6,30.14,NE,42,2.0,4.0,47,0.00,,,0.00,169,LWC V2.00 B727,2013-05-06 15:47:00,
2013-05-06 09:52:00,51.4,31.9,30.13,NNE,32,0.0,4.0,47,0.00,,,0.00,218,LWC V2.00 B727,2013-05-06 15:52:00,
2013-05-06 09:57:00,51.5,31.4,30.13,SW,227,3.0,4.0,46,0.00,,,0.00,276,LWC V2.00 B727,2013-05-06 15:57:00,
2013-05-06 10:02:00,51.9,32.8,30.14,SW,227,0.0,2.0,48,0.00,,,0.00,323,LWC V2.00 B727,2013-05-06 16:02:00,
2013-05-06 10:07:00,52.3,32.7,30.14,NW,313,1.0,2.0,47,0.00,,,0.00,330,LWC V2.00 B727,2013-05-06 16:07:00,
2013-05-06 10:12:00,52.6,33.0,30.14,SW,225,7.0,7.0,47,0.00,,,0.00,348,LWC V2.00 B727,2013-05-06 16:12:00,
2013-05-06 10:17:00,52.0,33.4,30.15,SSW,202,8.0,12.0,49,0.00,,,0.00,141,LWC V2.00 B727,2013-05-06 16:17:00,
2013-05-06 10:22:00,50.6,34.6,30.15,SW,233,5.0,9.0,54,0.00,,,0.00,153,LWC V2.00 B727,2013-05-06 16:22:00,
2013-05-06 10:27:00,49.7,35.1,30.16,WSW,247,7.0,12.0,57,0.00,,,0.00,134,LWC V2.00 B727,2013-05-06 16:27:00,
2013-05-06 10:32:00,48.7,35.4,30.16,WSW,240,5.0,7.0,60,0.00,,,0.00,193,LWC V2.00 B727,2013-05-06 16:32:00,
2013-05-06 10:37:00,48.0,36.8,30.16,SW,227,2.0,9.0,65,0.00,,,0.00,278,LWC V2.00 B727,2013-05-06 16:37:00,
2013-05-06 10:42:00,47.4,37.0,30.16,South,179,2.0,7.0,67,0.00,,,0.00,246,LWC V2.00 B727,2013-05-06 16:42:00,
2013-05-06 10:47:00,47.2,36.8,30.16,SSW,200,3.0,4.0,67,0.00,,,0.00,246,LWC V2.00 B727,2013-05-06 16:47:00,
2013-05-06 10:52:00,47.1,35.9,30.16,South,183,2.0,8.0,65,0.00,,,0.00,220,LWC V2.00 B727,2013-05-06 16:52:00,
2013-05-06 10:57:00,47.0,35.9,30.15,SSW,194,5.0,6.0,65,0.00,,,0.00,251,LWC V2.00 B727,2013-05-06 16:57:00,
2013-05-06 11:02:00,47.1,35.9,30.15,SW,217,0.0,2.0,65,0.00,,,0.00,255,LWC V2.00 B727,2013-05-06 17:02:00,
2013-05-06 11:07:00,47.4,36.2,30.15,SSE,159,0.0,3.0,65,0.00,,,0.00,271,LWC V2.00 B727,2013-05-06 17:07:00,
2013-05-06 11:12:00,47.7,36.9,30.15,SE,144,0.0,2.0,66,0.00,,,0.00,318,LWC V2.00 B727,2013-05-06 17:12:00,
2013-05-06 11:17:00,48.1,36.5,30.15,SE,144,0.0,1.0,64,0.00,,,0.00,394,LWC V2.00 B727,2013-05-06 17:17:00,
2013-05-06 11:22:00,48.7,37.5,30.15,South,180,4.0,5.0,65,0.00,,,0.00,448,LWC V2.00 B727,2013-05-06 17:22:00,
2013-05-06 11:27:00,49.4,38.5,30.14,ENE,69,0.0,4.0,66,0.00,,,0.00,585,LWC V2.00 B727,2013-05-06 17:27:00,
2013-05-06 11:32:00,50.4,38.7,30.14,ESE,115,3.0,3.0,64,0.00,,,0.00,784,LWC V2.00 B727,2013-05-06 17:32:00,
2013-05-06 11:37:00,51.2,37.8,30.14,NE,51,0.0,3.0,60,0.00,,,0.00,367,LWC V2.00 B727,2013-05-06 17:37:00,
2013-05-06 11:42:00,51.6,37.3,30.13,NNE,15,2.0,7.0,58,0.00,,,0.00,457,LWC V2.00 B727,2013-05-06 17:42:00,
2013-05-06 11:47:00,52.0,37.2,30.13,NNE,22,4.0,5.0,57,0.00,,,0.00,290,LWC V2.00 B727,2013-05-06 17:47:00,
2013-05-06 11:52:00,52.2,36.5,30.13,NNE,13,3.0,3.0,55,0.00,,,0.00,218,LWC V2.00 B727,2013-05-06 17:52:00,
2013-05-06 11:57:00,52.1,36.4,30.12,North,355,3.0,7.0,55,0.00,,,0.00,163,LWC V2.00 B727,2013-05-06 17:57:00,
2013-05-06 12:02:00,51.6,36.4,30.12,NNE,26,6.0,6.0,56,0.00,,,0.00,105,LWC V2.00 B727,2013-05-06 18:02:00,
2013-05-06 12:07:00,51.2,35.6,30.13,NNE,13,0.0,3.0,55,0.00,,,0.00,72,LWC V2.00 B727,2013-05-06 18:07:00,
2013-05-06 12:12:00,50.8,36.6,30.14,North,9,1.0,2.0,58,0.00,,,0.00,86,LWC V2.00 B727,2013-05-06 18:12:00,
2013-05-06 12:17:00,50.2,38.1,30.14,NNW,333,4.0,8.0,63,0.00,,,0.00,100,LWC V2.00 B727,2013-05-06 18:17:00,
2013-05-06 12:22:00,49.2,36.3,30.14,NW,323,0.0,6.0,61,0.00,,,0.00,121,LWC V2.00 B727,2013-05-06 18:22:00,
2013-05-06 12:27:00,48.3,37.5,30.14,SSW,200,8.0,11.0,66,0.00,,,0.00,185,LWC V2.00 B727,2013-05-06 18:27:00,
2013-05-06 12:32:00,47.3,38.4,30.14,SE,132,3.0,8.0,71,0.00,,,0.00,264,LWC V2.00 B727,2013-05-06 18:32:00,
2013-05-06 12:37:00,47.1,38.9,30.14,SSE,164,3.0,4.0,73,0.00,,,0.00,260,LWC V2.00 B727,2013-05-06 18:37:00,
2013-05-06 12:42:00,47.0,38.4,30.14,South,179,0.0,1.0,72,0.00,,,0.00,128,LWC V2.00 B727,2013-05-06 18:42:00,
2013-05-06 12:47:00,47.1,38.2,30.13,South,179,0.0,0.0,71,0.00,,,0.00,109,LWC V2.00 B727,2013-05-06 18:47:00,
2013-05-06 12:52:00,47.1,37.8,30.13,SSE,163,6.0,6.0,70,0.00,,,0.00,100,LWC V2.00 B727,2013-05-06 18:52:00,
2013-05-06 12:57:00,46.8,35.3,30.14,South,184,6.0,12.0,64,0.00,,,0.00,127,LWC V2.00 B727,2013-05-06 18:57:00,
2013-05-06 13:02:00,46.3,34.8,30.14,SSE,159,5.0,13.0,64,0.00,,,0.00,137,LWC V2.00 B727,2013-05-06 19:02:00,
2013-05-06 13:07:00,45.8,34.7,30.14,SSW,211,6.0,11.0,65,0.00,,,0.00,211,LWC V2.00 B727,2013-05-06 19:07:00,
2013-05-06 13:12:00,45.9,36.3,30.13,South,183,0.0,3.0,69,0.00,,,0.00,448,LWC V2.00 B727,2013-05-06 19:12:00,
2013-05-06 13:17:00,46.5,35.8,30.13,South,186,0.0,3.0,66,0.00,,,0.00,515,LWC V2.00 B727,2013-05-06 19:17:00,
2013-05-06 13:22:00,47.4,36.2,30.12,South,176,2.0,4.0,65,0.00,,,0.00,436,LWC V2.00 B727,2013-05-06 19:22:00,
2013-05-06 13:27:00,48.3,37.5,30.12,ESE,106,3.0,3.0,66,0.00,,,0.00,519,LWC V2.00 B727,2013-05-06 19:27:00,
2013-05-06 13:32:00,50.7,44.4,30.11,NNE,33,5.0,11.0,79,0.00,,,0.01,1220,LWC V2.00 B727,2013-05-06 19:32:00,
2013-05-06 13:37:00,52.7,44.3,30.11,NNE,32,7.0,8.0,73,0.00,,,0.01,1190,LWC V2.00 B727,2013-05-06 19:37:00,
2013-05-06 13:42:00,53.6,44.1,30.10,NNE,22,4.0,5.0,70,0.00,,,0.01,1355,LWC V2.00 B727,2013-05-06 19:42:00,
2013-05-06 13:47:00,54.2,41.5,30.10,NNE,28,4.0,6.0,62,0.00,,,0.01,336,LWC V2.00 B727,2013-05-06 19:47:00,
2013-05-06 13:52:00,53.9,39.9,30.09,NNE,15,3.0,6.0,59,0.00,,,0.01,469,LWC V2.00 B727,2013-05-06 19:52:00,
2013-05-06 13:57:00,53.8,39.8,30.09,North,9,3.0,7.0,59,0.00,,,0.01,278,LWC V2.00 B727,2013-05-06 19:57:00,
2013-05-06 14:02:00,53.4,38.6,30.09,North,0,4.0,8.0,57,0.00,,,0.01,350,LWC V2.00 B727,2013-05-06 20:02:00,
2013-05-06 14:07:00,53.1,38.7,30.09,NNE,21,1.0,4.0,58,0.00,,,0.01,353,LWC V2.00 B727,2013-05-06 20:07:00,
2013-05-06 14:12:00,53.0,36.3,30.09,ENE,72,0.0,2.0,53,0.00,,,0.01,142,LWC V2.00 B727,2013-05-06 20:12:00,
2013-05-06 14:17:00,52.4,36.2,30.12,South,172,12.0,23.0,54,0.00,,,0.01,51,LWC V2.00 B727,2013-05-06 20:17:00,
2013-05-06 14:22:00,47.1,35.9,30.11,WSW,241,11.0,18.0,65,0.00,,,0.01,86,LWC V2.00 B727,2013-05-06 20:22:00,
2013-05-06 14:27:00,43.4,34.6,30.12,South,180,10.0,18.0,71,0.00,,,0.01,77,LWC V2.00 B727,2013-05-06 20:27:00,
2013-05-06 14:32:00,41.6,34.9,30.14,SW,227,9.0,10.0,77,0.00,,,0.01,54,LWC V2.00 B727,2013-05-06 20:32:00,
2013-05-06 14:37:00,41.0,35.0,30.14,South,190,6.0,7.0,79,0.00,,,0.01,32,LWC V2.00 B727,2013-05-06 20:37:00,
2013-05-06 14:42:00,40.9,35.5,30.14,South,186,3.0,6.0,81,0.00,,,0.01,39,LWC V2.00 B727,2013-05-06 20:42:00,
2013-05-06 14:47:00,41.0,35.9,30.14,SSW,202,6.0,7.0,82,0.00,,,0.01,74,LWC V2.00 B727,2013-05-06 20:47:00,
2013-05-06 14:52:00,41.1,35.7,30.14,SW,225,3.0,5.0,81,0.00,,,0.01,63,LWC V2.00 B727,2013-05-06 20:52:00,
2013-05-06 14:57:00,41.3,36.2,30.13,SE,125,0.0,2.0,82,0.00,,,0.01,139,LWC V2.00 B727,2013-05-06 20:57:00,
2013-05-06 15:02:00,41.8,37.3,30.12,ESE,123,1.0,2.0,84,0.00,,,0.01,251,LWC V2.00 B727,2013-05-06 21:02:00,
2013-05-06 15:07:00,42.4,38.2,30.12,East,90,0.0,3.0,85,0.00,,,0.01,267,LWC V2.00 B727,2013-05-06 21:07:00,
2013-05-06 15:12:00,43.1,39.2,30.12,East,82,3.0,3.0,86,0.00,,,0.01,401,LWC V2.00 B727,2013-05-06 21:12:00,
2013-05-06 15:17:00,44.0,39.8,30.12,ENE,75,0.0,2.0,85,0.00,,,0.01,388,LWC V2.00 B727,2013-05-06 21:17:00,
2013-05-06 15:22:00,44.8,40.3,30.12,ENE,75,1.0,2.0,84,0.00,,,0.01,373,LWC V2.00 B727,2013-05-06 21:22:00,
2013-05-06 15:27:00,45.4,39.9,30.12,ENE,75,0.0,1.0,81,0.00,,,0.01,290,LWC V2.00 B727,2013-05-06 21:27:00,
2013-05-06 15:32:00,46.0,39.9,30.11,East,80,0.0,0.0,79,0.00,,,0.01,239,LWC V2.00 B727,2013-05-06 21:32:00,
2013-05-06 15:37:00,46.5,40.0,30.11,East,84,0.0,1.0,78,0.00,,,0.01,271,LWC V2.00 B727,2013-05-06 21:37:00,
2013-05-06 15:42:00,47.0,40.2,30.11,East,83,0.0,2.0,77,0.00,,,0.01,271,LWC V2.00 B727,2013-05-06 21:42:00,
2013-05-06 15:47:00,47.6,40.4,30.11,SE,136,0.0,1.0,76,0.00,,,0.01,142,LWC V2.00 B727,2013-05-06 21:47:00,
2013-05-06 15:52:00,47.9,39.7,30.11,SE,125,0.0,0.0,73,0.00,,,0.01,116,LWC V2.00 B727,2013-05-06 21:52:00,
2013-05-06 15:57:00,48.1,39.5,30.10,SSW,211,6.0,6.0,72,0.00,,,0.01,135,LWC V2.00 B727,2013-05-06 21:57:00,
2013-05-06 16:02:00,48.0,38.7,30.10,SSW,198,4.0,6.0,70,0.00,,,0.01,221,LWC V2.00 B727,2013-05-06 22:02:00,
2013-05-06 16:07:00,48.1,39.5,30.10,SSW,203,2.0,4.0,72,0.00,,,0.01,239,LWC V2.00 B727,2013-05-06 22:07:00,
2013-05-06 16:12:00,48.3,39.3,30.10,SSW,195,0.0,4.0,71,0.00,,,0.01,179,LWC V2.00 B727,2013-05-06 22:12:00,
2013-05-06 16:17:00,48.5,39.2,30.11,SSW,195,0.0,3.0,70,0.00,,,0.01,162,LWC V2.00 B727,2013-05-06 22:17:00,
2013-05-06 16:22:00,48.8,38.3,30.10,SW,236,4.0,8.0,67,0.00,,,0.01,246,LWC V2.00 B727,2013-05-06 22:22:00,
2013-05-06 16:27:00,49.2,39.1,30.10,South,187,3.0,5.0,68,0.00,,,0.01,294,LWC V2.00 B727,2013-05-06 22:27:00,
2013-05-06 16:32:00,49.9,37.8,30.11,SSW,211,5.0,8.0,63,0.00,,,0.01,366,LWC V2.00 B727,2013-05-06 22:32:00,
2013-05-06 16:37:00,50.6,37.7,30.10,WSW,243,6.0,7.0,61,0.00,,,0.01,341,LWC V2.00 B727,2013-05-06 22:37:00,
2013-05-06 16:42:00,51.0,37.2,30.11,SW,231,6.0,13.0,59,0.00,,,0.01,265,LWC V2.00 B727,2013-05-06 22:42:00,
2013-05-06 16:47:00,51.2,38.2,30.11,WSW,249,5.0,8.0,61,0.00,,,0.01,241,LWC V2.00 B727,2013-05-06 22:47:00,
2013-05-06 16:52:00,50.9,37.1,30.11,SSW,192,7.0,14.0,59,0.00,,,0.01,244,LWC V2.00 B727,2013-05-06 22:52:00,
2013-05-06 16:57:00,50.6,37.2,30.11,SW,225,4.0,11.0,60,0.00,,,0.01,265,LWC V2.00 B727,2013-05-06 22:57:00,
2013-05-06 17:02:00,50.8,39.1,30.11,SSW,202,0.0,4.0,64,0.00,,,0.01,355,LWC V2.00 B727,2013-05-06 23:02:00,
2013-05-06 17:07:00,51.4,36.7,30.11,WSW,245,7.0,12.0,57,0.00,,,0.01,313,LWC V2.00 B727,2013-05-06 23:07:00,
2013-05-06 17:12:00,51.6,35.5,30.11,SSW,193,4.0,11.0,54,0.00,,,0.01,220,LWC V2.00 B727,2013-05-06 23:12:00,
2013-05-06 17:17:00,51.7,35.6,30.11,WSW,257,5.0,14.0,54,0.00,,,0.01,162,LWC V2.00 B727,2013-05-06 23:17:00,
2013-05-06 17:22:00,51.4,34.8,30.12,West,260,11.0,15.0,53,0.00,,,0.01,102,LWC V2.00 B727,2013-05-06 23:22:00,
2013-05-06 17:27:00,51.0,34.5,30.12,SW,236,5.0,7.0,53,0.00,,,0.01,76,LWC V2.00 B727,2013-05-06 23:27:00,
2013-05-06 17:32:00,50.7,34.2,30.13,WSW,250,10.0,14.0,53,0.00,,,0.01,90,LWC V2.00 B727,2013-05-06 23:32:00,
2013-05-06 17:37:00,50.5,34.5,30.13,South,190,4.0,8.0,54,0.00,,,0.01,118,LWC V2.00 B727,2013-05-06 23:37:00,
2013-05-06 17:42:00,50.5,34.5,30.13,SW,217,10.0,12.0,54,0.00,,,0.01,172,LWC V2.00 B727,2013-05-06 23:42:00,
2013-05-06 17:47:00,50.5,34.5,30.13,SW,227,6.0,10.0,54,0.00,,,0.01,153,LWC V2.00 B727,2013-05-06 23:47:00,
2013-05-06 17:52:00,50.5,34.9,30.13,SSW,194,5.0,7.0,55,0.00,,,0.01,190,LWC V2.00 B727,2013-05-06 23:52:00,
2013-05-06 17:57:00,50.6,35.0,30.14,SSW,192,1.0,11.0,55,0.00,,,0.01,128,LWC V2.00 B727,2013-05-06 23:57:00,
2013-05-06 18:02:00,50.6,34.1,30.14,SSW,200,6.0,10.0,53,0.00,,,0.01,160,LWC V2.00 B727,2013-05-07 00:02:00,
2013-05-06 18:07:00,50.6,35.0,30.14,SW,217,4.0,6.0,55,0.00,,,0.01,179,LWC V2.00 B727,2013-05-07 00:07:00,
2013-05-06 18:12:00,50.8,34.8,30.14,SSW,211,3.0,4.0,54,0.00,,,0.01,141,LWC V2.00 B727,2013-05-07 00:12:00,
2013-05-06 18:17:00,50.9,35.3,30.14,SSW,213,2.0,4.0,55,0.00,,,0.01,123,LWC V2.00 B727,2013-05-07 00:17:00,
2013-05-06 18:22:00,51.2,35.1,30.13,SSW,194,2.0,4.0,54,0.00,,,0.01,97,LWC V2.00 B727,2013-05-07 00:22:00,
2013-05-06 18:27:00,51.5,34.9,30.13,SSW,200,3.0,5.0,53,0.00,,,0.01,84,LWC V2.00 B727,2013-05-07 00:27:00,
2013-05-06 18:32:00,51.8,34.7,30.14,WSW,240,2.0,7.0,52,0.00,,,0.01,102,LWC V2.00 B727,2013-05-07 00:32:00,
2013-05-06 18:37:00,51.8,34.3,30.14,SW,235,4.0,6.0,51,0.00,,,0.01,79,LWC V2.00 B727,2013-05-07 00:37:00,
2013-05-06 18:42:00,51.7,34.2,30.14,WSW,246,1.0,5.0,51,0.00,,,0.01,79,LWC V2.00 B727,2013-05-07 00:42:00,
2013-05-06 18:47:00,51.6,34.1,30.14,WSW,241,1.0,2.0,51,0.00,,,0.01,58,LWC V2.00 B727,2013-05-07 00:47:00,
2013-05-06 18:52:00,51.4,33.9,30.15,WSW,240,3.0,6.0,51,0.00,,,0.01,62,LWC V2.00 B727,2013-05-07 00:52:00,
2013-05-06 18:57:00,51.2,33.7,30.15,SW,219,2.0,5.0,51,0.00,,,0.01,62,LWC V2.00 B727,2013-05-07 00:57:00,
2013-05-06 19:02:00,51.0,34.0,30.15,WSW,242,2.0,3.0,52,0.00,,,0.01,69,LWC V2.00 B727,2013-05-07 01:02:00,
2013-05-06 19:07:00,50.8,33.8,30.15,SW,235,0.0,3.0,52,0.00,,,0.01,70,LWC V2.00 B727,2013-05-07 01:07:00,
2013-05-06 19:12:00,50.7,33.7,30.15,SSW,213,0.0,4.0,52,0.00,,,0.01,79,LWC V2.00 B727,2013-05-07 01:12:00,
2013-05-06 19:17:00,50.6,33.6,30.15,NNW,347,3.0,4.0,52,0.00,,,0.01,44,LWC V2.00 B727,2013-05-07 01:17:00,
2013-05-06 19:22:00,50.4,33.4,30.16,NW,317,2.0,3.0,52,0.00,,,0.01,19,LWC V2.00 B727,2013-05-07 01:22:00,
2013-05-06 19:27:00,50.2,33.3,30.16,WSW,250,0.0,3.0,52,0.00,,,0.01,19,LWC V2.00 B727,2013-05-07 01:27:00,
2013-05-06 19:32:00,49.9,33.0,30.16,WSW,246,0.0,3.0,52,0.00,,,0.01,23,LWC V2.00 B727,2013-05-07 01:32:00,
2013-05-06 19:37:00,49.7,32.8,30.17,West,280,0.0,0.0,52,0.00,,,0.01,23,LWC V2.00 B727,2013-05-07 01:37:00,
2013-05-06 19:42:00,49.6,33.2,30.17,West,279,0.0,1.0,53,0.00,,,0.01,14,LWC V2.00 B727,2013-05-07 01:42:00,
2013-05-06 19:47:00,49.3,32.9,30.17,West,275,0.0,0.0,53,0.00,,,0.01,9,LWC V2.00 B727,2013-05-07 01:47:00,
2013-05-06 19:52:00,49.1,32.7,30.17,WNW,296,0.0,0.0,53,0.00,,,0.01,0,LWC V2.00 B727,2013-05-07 01:52:00,
2013-05-06 19:57:00,48.8,32.4,30.18,WNW,296,0.0,0.0,53,0.00,,,0.01,0,LWC V2.00 B727,2013-05-07 01:57:00,
2013-05-06 20:02:00,48.5,32.6,30.18,WNW,296,0.0,0.0,54,0.00,,,0.01,0,LWC V2.00 B727,2013-05-07 02:02:00,
2013-05-06 20:07:00,48.1,32.7,30.18,WNW,296,0.0,0.0,55,0.00,,,0.01,0,LWC V2.00 B727,2013-05-07 02:07:00,
2013-05-06 20:12:00,47.5,33.0,30.18,WNW,296,0.0,1.0,57,0.00,,,0.01,0,LWC V2.00 B727,2013-05-07 02:12:00,
2013-05-06 20:17:00,46.9,32.9,30.18,WNW,282,1.0,2.0,58,0.00,,,0.01,0,LWC V2.00 B727,2013-05-07 02:17:00,
2013-05-06 20:22:00,46.2,33.1,30.18,West,281,0.0,2.0,60,0.00,,,0.01,0,LWC V2.00 B727,2013-05-07 02:22:00,
2013-05-06 20:27:00,45.7,33.0,30.19,WNW,282,0.0,0.0,61,0.00,,,0.01,0,LWC V2.00 B727,2013-05-07 02:27:00,
2013-05-06 20:32:00,45.3,33.1,30.19,West,274,1.0,2.0,62,0.00,,,0.01,0,LWC V2.00 B727,2013-05-07 02:32:00,
2013-05-06 20:37:00,44.8,33.4,30.19,South,186,2.0,3.0,64,0.00,,,0.01,0,LWC V2.00 B727,2013-05-07 02:37:00,
2013-05-06 20:42:00,44.3,33.3,30.19,SSE,167,2.0,2.0,65,0.00,,,0.01,0,LWC V2.00 B727,2013-05-07 02:42:00,
2013-05-06 20:47:00,43.8,32.8,30.19,SSE,165,0.0,2.0,65,0.00,,,0.01,0,LWC V2.00 B727,2013-05-07 02:47:00,
2013-05-06 20:52:00,43.4,32.4,30.19,SSE,164,1.0,2.0,65,0.00,,,0.01,0,LWC V2.00 B727,2013-05-07 02:52:00,
2013-05-06 20:57:00,43.0,32.4,30.19,SSE,165,0.0,2.0,66,0.00,,,0.01,0,LWC V2.00 B727,2013-05-07 02:57:00,
2013-05-06 21:02:00,42.5,32.3,30.20,SSE,167,1.0,3.0,67,0.00,,,0.01,0,LWC V2.00 B727,2013-05-07 03:02:00,
2013-05-06 21:07:00,42.1,32.3,30.20,SSE,163,2.0,2.0,68,0.00,,,0.01,0,LWC V2.00 B727,2013-05-07 03:07:00,
2013-05-06 21:12:00,41.7,32.3,30.20,SSE,163,1.0,2.0,69,0.00,,,0.01,0,LWC V2.00 B727,2013-05-07 03:12:00,
2013-05-06 21:17:00,41.4,32.0,30.21,SSE,161,2.0,2.0,69,0.00,,,0.01,0,LWC V2.00 B727,2013-05-07 03:17:00,
2013-05-06 21:22:00,41.1,31.7,30.21,SSE,151,2.0,3.0,69,0.00,,,0.01,0,LWC V2.00 B727,2013-05-07 03:22:00,
2013-05-06 21:27:00,41.0,32.0,30.21,SSE,159,1.0,3.0,70,0.00,,,0.01,0,LWC V2.00 B727,2013-05-07 03:27:00,
2013-05-06 21:32:00,40.8,31.8,30.21,SSE,152,0.0,2.0,70,0.00,,,0.01,0,LWC V2.00 B727,2013-05-07 03:32:00,
2013-05-06 21:35:00,40.7,31.7,30.22,SSE,152,0.0,0.0,70,0.00,,,0.01,0,LWC V2.00 B727,2013-05-07 03:35:00,
2013-05-06 21:41:00,40.2,31.6,30.22,SSE,148,1.0,2.0,71,0.00,,,0.01,0,LWC V2.00 B727,2013-05-07 03:41:00,
2013-05-06 21:46:00,39.9,31.3,30.22,SSE,148,0.0,0.0,71,0.00,,,0.01,0,LWC V2.00 B727,2013-05-07 03:46:00,
2013-05-06 21:50:00,39.5,30.9,30.23,SE,146,0.0,2.0,71,0.00,,,0.01,0,LWC V2.00 B727,2013-05-07 03:50:00,
2013-05-06 21:55:00,39.1,30.8,30.23,SSE,150,1.0,3.0,72,0.00,,,0.01,0,LWC V2.00 B727,2013-05-07 03:55:00,
2013-05-06 22:00:00,38.8,30.9,30.23,SSE,167,2.0,3.0,73,0.00,,,0.01,0,LWC V2.00 B727,2013-05-07 04:00:00,
2013-05-06 22:01:00,38.8,30.9,30.23,SSE,167,2.0,3.0,73,0.00,,,0.01,0,LWC V2.00 B727,2013-05-07 04:01:00,
2013-05-06 22:02:00,38.8,30.9,30.23,SSE,157,2.0,2.0,73,0.00,,,0.01,0,LWC V2.00 B727,2013-05-07 04:02:00,
2013-05-06 22:07:00,38.6,31.0,30.23,SSE,153,0.0,3.0,74,0.00,,,0.01,0,LWC V2.00 B727,2013-05-07 04:07:00,
2013-05-06 22:12:00,38.5,30.9,30.23,SSE,157,1.0,3.0,74,0.00,,,0.01,0,LWC V2.00 B727,2013-05-07 04:12:00,
2013-05-06 22:17:00,38.4,30.8,30.23,SSE,159,3.0,3.0,74,0.00,,,0.01,0,LWC V2.00 B727,2013-05-07 04:17:00,
2013-05-06 22:22:00,38.4,30.8,30.24,SSE,156,1.0,2.0,74,0.00,,,0.01,0,LWC V2.00 B727,2013-05-07 04:22:00,
2013-05-06 22:27:00,38.3,30.8,30.24,SSE,155,2.0,2.0,74,0.00,,,0.01,0,LWC V2.00 B727,2013-05-07 04:27:00,
2013-05-06 22:32:00,38.2,30.7,30.24,SSE,155,0.0,1.0,74,0.00,,,0.01,0,LWC V2.00 B727,2013-05-07 04:32:00,
2013-05-06 22:37:00,38.1,30.9,30.24,SSE,155,0.0,1.0,75,0.00,,,0.01,0,LWC V2.00 B727,2013-05-07 04:37:00,
2013-05-06 22:42:00,38.1,31.2,30.24,SSE,155,0.0,1.0,76,0.00,,,0.01,0,LWC V2.00 B727,2013-05-07 04:42:00,
2013-05-06 22:47:00,38.1,31.2,30.24,SSE,149,0.0,2.0,76,0.00,,,0.01,0,LWC V2.00 B727,2013-05-07 04:47:00,
2013-05-06 22:52:00,38.2,31.6,30.24,SSE,149,0.0,0.0,77,0.00,,,0.01,0,LWC V2.00 B727,2013-05-07 04:52:00,
2013-05-06 22:57:00,38.3,32.1,30.24,SSE,149,0.0,1.0,78,0.00,,,0.01,0,LWC V2.00 B727,2013-05-07 04:57:00,
2013-05-06 23:02:00,38.3,32.1,30.24,SSE,149,1.0,1.0,78,0.00,,,0.01,0,LWC V2.00 B727,2013-05-07 05:02:00,
2013-05-06 23:07:00,38.4,32.2,30.24,SSE,149,0.0,0.0,78,0.00,,,0.01,0,LWC V2.00 B727,2013-05-07 05:07:00,
2013-05-06 23:12:00,38.7,32.1,30.24,SSE,149,0.0,1.0,77,0.00,,,0.01,0,LWC V2.00 B727,2013-05-07 05:12:00,
2013-05-06 23:17:00,38.9,32.3,30.25,SSE,149,1.0,2.0,77,0.00,,,0.01,0,LWC V2.00 B727,2013-05-07 05:17:00,
2013-05-06 23:22:00,39.4,33.4,30.27,WSW,246,2.0,6.0,79,0.00,,,0.01,0,LWC V2.00 B727,2013-05-07 05:22:00,
2013-05-06 23:27:00,40.1,34.4,30.27,SW,227,5.0,8.0,80,0.00,,,0.01,0,LWC V2.00 B727,2013-05-07 05:27:00,
2013-05-06 23:32:00,40.7,35.3,30.26,WSW,248,1.0,6.0,81,0.00,,,0.01,0,LWC V2.00 B727,2013-05-07 05:32:00,
2013-05-06 23:37:00,41.0,35.6,30.26,WSW,252,0.0,0.0,81,0.00,,,0.01,0,LWC V2.00 B727,2013-05-07 05:37:00,
2013-05-06 23:42:00,41.1,35.7,30.26,WSW,252,0.0,0.0,81,0.00,,,0.01,0,LWC V2.00 B727,2013-05-07 05:42:00,
2013-05-06 23:47:00,41.1,35.7,30.26,WSW,252,0.0,1.0,81,0.00,,,0.01,0,LWC V2.00 B727,2013-05-07 05:47:00,
2013-05-06 23:52:00,41.1,35.7,30.26,WSW,256,0.0,2.0,81,0.00,,,0.01,0,LWC V2.00 B727,2013-05-07 05:52:00,
2013-05-06 23:57:00,41.1,35.7,30.26,WSW,238,0.0,1.0,81,0.00,,,0.01,0,LWC V2.00 B727,2013-05-07 05:57:00,